CSC3974 RKSI-ZUTF

Flight info

Callsign CSC3974
Flight time N/A
Altitude 34000
Route BINIL Y697 AGAVO A591 IKEKA W4 SHX H11 UGSUT W152 NSH G212 BUPMI
Aircraft A21N/M-SDE1FGHILORVWXY/HB1

Departure

Time 2026-05-06 10:12
Airport Incheon International Airport (RKSI)

Arrival

Time N/A
Airport Chengdu Tianfu International Airport (ZUTF)
Time Latitude Longitude Altitude Speed Heading
2026-05-06 10:03 37.47321 126.43847 29 ft 0 kts 54°
2026-05-06 10:04 37.47319 126.43843 29 ft 2 kts 55°
2026-05-06 10:04 37.47312 126.43830 29 ft 2 kts 54°
2026-05-06 10:04 37.47302 126.43812 29 ft 2 kts 55°
2026-05-06 10:05 37.47293 126.43797 29 ft 2 kts 54°
2026-05-06 10:05 37.47290 126.43791 29 ft 2 kts 54°
2026-05-06 10:05 37.47287 126.43786 29 ft 2 kts 55°
2026-05-06 10:06 37.47279 126.43770 29 ft 2 kts 55°
2026-05-06 10:06 37.47271 126.43757 29 ft 0 kts 54°
2026-05-06 10:06 37.47264 126.43748 29 ft 2 kts 11°
2026-05-06 10:06 37.47254 126.43749 29 ft 1 kts 326°
2026-05-06 10:07 37.47248 126.43754 29 ft 0 kts 327°
2026-05-06 10:08 37.47254 126.43749 29 ft 7 kts 327°
2026-05-06 10:08 37.47320 126.43697 29 ft 14 kts 328°
2026-05-06 10:09 37.47409 126.43642 29 ft 15 kts 340°
2026-05-06 10:09 37.47492 126.43634 29 ft 10 kts 30°
2026-05-06 10:09 37.47536 126.43698 29 ft 11 kts 50°
2026-05-06 10:09 37.47604 126.43721 29 ft 12 kts 337°
2026-05-06 10:10 37.47680 126.43652 29 ft 19 kts 321°
2026-05-06 10:10 37.47795 126.43542 29 ft 21 kts 326°
2026-05-06 10:10 37.47905 126.43486 29 ft 20 kts
2026-05-06 10:10 37.48003 126.43535 29 ft 19 kts 46°
2026-05-06 10:11 37.48067 126.43654 29 ft 19 kts 64°
2026-05-06 10:11 37.48055 126.43724 29 ft 10 kts 149°
2026-05-06 10:11 37.47992 126.43800 29 ft 24 kts 140°
2026-05-06 10:11 37.47804 126.43966 29 ft 76 kts 145°
2026-05-06 10:12 37.47304 126.44391 30 ft 134 kts 143°
2026-05-06 10:12 37.46648 126.44989 33 ft 177 kts 147°
2026-05-06 10:12 37.45823 126.45678 699 ft 170 kts 145°
2026-05-06 10:12 37.44987 126.46602 1319 ft 168 kts 134°
2026-05-06 10:13 37.43894 126.48423 1781 ft 190 kts 128°
2026-05-06 10:13 37.42793 126.50169 2178 ft 211 kts 131°
2026-05-06 10:13 37.41292 126.52398 2717 ft 239 kts 132°
2026-05-06 10:13 37.39854 126.54506 3313 ft 260 kts 132°
2026-05-06 10:14 37.38670 126.56240 4024 ft 266 kts 132°
2026-05-06 10:14 37.37401 126.57900 4797 ft 267 kts 143°
2026-05-06 10:14 37.35837 126.59087 5525 ft 267 kts 159°
2026-05-06 10:14 37.34105 126.59875 6253 ft 270 kts 163°
2026-05-06 10:15 37.32316 126.60622 6969 ft 273 kts 164°
2026-05-06 10:15 37.30486 126.61394 7610 ft 278 kts 164°
2026-05-06 10:15 37.28605 126.62150 7922 ft 278 kts 171°
2026-05-06 10:15 37.26682 126.62110 7959 ft 271 kts 198°
2026-05-06 10:16 37.25006 126.61050 7977 ft 267 kts 216°
2026-05-06 10:16 37.23476 126.59663 7972 ft 267 kts 217°
2026-05-06 10:16 37.21948 126.58269 7972 ft 267 kts 217°
2026-05-06 10:16 37.20565 126.57026 7971 ft 267 kts 217°
2026-05-06 10:17 37.19202 126.55813 8094 ft 266 kts 217°
2026-05-06 10:17 37.17424 126.54238 8410 ft 269 kts 217°
2026-05-06 10:17 37.15872 126.52867 8681 ft 270 kts 217°
2026-05-06 10:17 37.14484 126.51279 8936 ft 268 kts 236°
2026-05-06 10:18 37.13734 126.49131 9208 ft 268 kts 259°
2026-05-06 10:18 37.13616 126.46875 9482 ft 269 kts 269°
2026-05-06 10:18 37.13614 126.44462 9757 ft 270 kts 269°
2026-05-06 10:18 37.13611 126.42092 10027 ft 270 kts 269°
2026-05-06 10:19 37.13601 126.39665 10306 ft 280 kts 269°
2026-05-06 10:19 37.13585 126.37107 10585 ft 298 kts 269°
2026-05-06 10:19 37.13568 126.34489 10894 ft 313 kts 269°
2026-05-06 10:19 37.13548 126.31661 11223 ft 328 kts 269°
2026-05-06 10:20 37.13525 126.28697 11506 ft 344 kts 269°
2026-05-06 10:20 37.13500 126.25589 11784 ft 360 kts 269°
2026-05-06 10:20 37.13473 126.22340 12055 ft 375 kts 269°
2026-05-06 10:20 37.13444 126.19051 12489 ft 384 kts 269°
2026-05-06 10:21 37.13413 126.15634 13205 ft 386 kts 269°
2026-05-06 10:21 37.13394 126.12308 13910 ft 386 kts 271°
2026-05-06 10:21 37.13583 126.08915 14569 ft 388 kts 277°
2026-05-06 10:21 37.14063 126.05538 15217 ft 390 kts 282°
2026-05-06 10:22 37.14809 126.02230 15852 ft 392 kts 286°
2026-05-06 10:22 37.15523 125.99413 16382 ft 394 kts 287°
2026-05-06 10:22 37.16381 125.95803 17030 ft 395 kts 284°
2026-05-06 10:22 37.17083 125.92393 17622 ft 397 kts 283°
2026-05-06 10:23 37.17768 125.88989 18188 ft 399 kts 283°
2026-05-06 10:23 37.18453 125.85597 18734 ft 400 kts 283°
2026-05-06 10:23 37.19152 125.82154 19266 ft 402 kts 283°
2026-05-06 10:23 37.19855 125.78712 19776 ft 404 kts 283°
2026-05-06 10:24 37.20558 125.75273 20278 ft 405 kts 283°
2026-05-06 10:24 37.21268 125.71805 20756 ft 407 kts 283°
2026-05-06 10:24 37.21982 125.68315 21218 ft 408 kts 283°
2026-05-06 10:24 37.22694 125.64832 21674 ft 410 kts 283°
2026-05-06 10:25 37.23407 125.61343 22114 ft 411 kts 283°
2026-05-06 10:25 37.24124 125.57827 22539 ft 413 kts 283°
2026-05-06 10:25 37.24841 125.54308 22949 ft 414 kts 283°
2026-05-06 10:25 37.25552 125.50813 23339 ft 416 kts 283°
2026-05-06 10:26 37.26263 125.47311 23738 ft 417 kts 283°
2026-05-06 10:26 37.26979 125.43780 24272 ft 414 kts 283°
2026-05-06 10:26 37.27685 125.40299 24852 ft 410 kts 283°
2026-05-06 10:26 37.28381 125.36854 25397 ft 407 kts 282°
2026-05-06 10:27 37.29070 125.33438 25857 ft 405 kts 282°
2026-05-06 10:27 37.29752 125.30032 25989 ft 403 kts 282°
2026-05-06 10:27 37.30433 125.26635 25994 ft 403 kts 282°
2026-05-06 10:27 37.31113 125.23238 25997 ft 402 kts 282°
2026-05-06 10:28 37.31796 125.19818 25998 ft 402 kts 282°
2026-05-06 10:28 37.32475 125.16421 25999 ft 402 kts 282°
2026-05-06 10:28 37.33152 125.13026 25999 ft 402 kts 282°
2026-05-06 10:28 37.33831 125.09626 25999 ft 402 kts 282°
2026-05-06 10:29 37.34507 125.06230 25999 ft 402 kts 282°
2026-05-06 10:29 37.35183 125.02824 25999 ft 402 kts 282°
2026-05-06 10:29 37.35857 124.99422 25999 ft 402 kts 282°
2026-05-06 10:29 37.36535 124.95992 25999 ft 403 kts 282°
2026-05-06 10:30 37.37208 124.92590 25999 ft 403 kts 282°
2026-05-06 10:30 37.37876 124.89181 25998 ft 403 kts 281°
2026-05-06 10:30 37.38398 124.85728 25999 ft 403 kts 278°
2026-05-06 10:30 37.38716 124.82243 25999 ft 403 kts 274°
2026-05-06 10:31 37.38833 124.78737 25999 ft 403 kts 271°
2026-05-06 10:31 37.38795 124.75218 26000 ft 404 kts 269°
2026-05-06 10:31 37.38734 124.71680 25999 ft 404 kts 269°
2026-05-06 10:31 37.38665 124.68164 25999 ft 403 kts 269°
2026-05-06 10:32 37.38592 124.64650 25999 ft 404 kts 269°
2026-05-06 10:32 37.38517 124.61135 25999 ft 403 kts 269°
2026-05-06 10:32 37.38439 124.57625 25999 ft 403 kts 269°
2026-05-06 10:32 37.38360 124.54109 25999 ft 403 kts 269°
2026-05-06 10:33 37.38280 124.50598 25999 ft 404 kts 269°
2026-05-06 10:33 37.38177 124.47061 25995 ft 404 kts 266°
2026-05-06 10:33 37.37735 124.43582 25998 ft 406 kts 259°
2026-05-06 10:33 37.36876 124.40210 25999 ft 409 kts 251°
2026-05-06 10:34 37.35619 124.37007 25999 ft 413 kts 244°
2026-05-06 10:34 37.34127 124.33923 26002 ft 413 kts 243°
2026-05-06 10:34 37.32615 124.30864 26001 ft 414 kts 242°
2026-05-06 10:34 37.31092 124.27808 25999 ft 414 kts 242°
2026-05-06 10:35 37.29554 124.24733 25999 ft 414 kts 242°
2026-05-06 10:35 37.28022 124.21681 25999 ft 414 kts 242°
2026-05-06 10:35 37.26490 124.18634 25999 ft 414 kts 242°
2026-05-06 10:35 37.24955 124.15584 25999 ft 414 kts 242°
2026-05-06 10:36 37.23419 124.12542 25999 ft 415 kts 242°
2026-05-06 10:36 37.21837 124.09530 25999 ft 415 kts 241°
2026-05-06 10:36 37.20231 124.06534 25999 ft 415 kts 241°
2026-05-06 10:36 37.18610 124.03514 25999 ft 416 kts 241°
2026-05-06 10:37 37.17004 124.00516 25999 ft 415 kts 241°
2026-05-06 10:37 37.15422 123.97503 25999 ft 415 kts 242°
2026-05-06 10:37 37.13867 123.94478 25999 ft 414 kts 242°
2026-05-06 10:37 37.12315 123.91450 25999 ft 414 kts 242°
2026-05-06 10:38 37.10762 123.88426 25999 ft 415 kts 242°
2026-05-06 10:38 37.09203 123.85392 25999 ft 415 kts 242°
2026-05-06 10:38 37.07632 123.82342 25998 ft 416 kts 242°
2026-05-06 10:38 37.06062 123.79305 25995 ft 417 kts 241°
2026-05-06 10:39 37.04492 123.76269 25986 ft 418 kts 241°
2026-05-06 10:39 37.02915 123.73224 25974 ft 418 kts 241°
2026-05-06 10:39 37.01338 123.70179 25963 ft 423 kts 241°
2026-05-06 10:39 36.99720 123.67059 26078 ft 430 kts 240°
2026-05-06 10:40 36.98087 123.63915 26350 ft 432 kts 240°
2026-05-06 10:40 36.96437 123.60747 26742 ft 432 kts 240°
2026-05-06 10:40 36.94809 123.57625 27181 ft 430 kts 240°
2026-05-06 10:40 36.93185 123.54513 27439 ft 429 kts 240°
2026-05-06 10:41 36.91568 123.51412 27450 ft 427 kts 240°
2026-05-06 10:41 36.89951 123.48319 27456 ft 426 kts 240°
2026-05-06 10:41 36.88327 123.45240 27459 ft 427 kts 240°
2026-05-06 10:41 36.86699 123.42153 27460 ft 428 kts 240°
2026-05-06 10:42 36.85257 123.38920 27456 ft 423 kts 250°
2026-05-06 10:42 36.84478 123.35416 27457 ft 420 kts 262°
2026-05-06 10:42 36.84371 123.31790 27453 ft 421 kts 274°
2026-05-06 10:42 36.84928 123.28209 27453 ft 425 kts 283°
2026-05-06 10:43 36.85749 123.24689 27442 ft 424 kts 284°
2026-05-06 10:43 36.86587 123.21170 27437 ft 425 kts 284°
2026-05-06 10:43 36.87430 123.17647 27434 ft 424 kts 284°
2026-05-06 10:44 36.89124 123.10593 27435 ft 424 kts 284°
2026-05-06 10:44 36.89969 123.07083 27432 ft 424 kts 284°
2026-05-06 10:44 36.90810 123.03567 27434 ft 424 kts 284°
2026-05-06 10:44 36.91653 123.00061 27430 ft 423 kts 284°
2026-05-06 10:45 36.92496 122.96545 27431 ft 424 kts 284°
2026-05-06 10:45 36.93337 122.93022 27433 ft 424 kts 284°
2026-05-06 10:45 36.94182 122.89484 27428 ft 424 kts 284°
2026-05-06 10:45 36.95021 122.85959 27430 ft 424 kts 284°
2026-05-06 10:46 36.95860 122.82439 27431 ft 423 kts 284°
2026-05-06 10:46 36.96693 122.78929 27431 ft 422 kts 284°
2026-05-06 10:46 36.97524 122.75429 27431 ft 422 kts 284°
2026-05-06 10:46 36.98355 122.71926 27433 ft 422 kts 284°
2026-05-06 10:47 36.99185 122.68418 27434 ft 421 kts 284°
2026-05-06 10:47 37.00018 122.64893 27430 ft 420 kts 284°
2026-05-06 10:47 37.00843 122.61399 27433 ft 419 kts 284°
2026-05-06 10:47 37.01663 122.57926 27434 ft 418 kts 284°
2026-05-06 10:48 37.02480 122.54453 27431 ft 417 kts 284°
2026-05-06 10:48 37.03300 122.50979 27434 ft 417 kts 284°
2026-05-06 10:48 37.04113 122.47511 27435 ft 416 kts 284°
2026-05-06 10:48 37.04923 122.44053 27434 ft 415 kts 284°
2026-05-06 10:49 37.05735 122.40574 27435 ft 414 kts 284°
2026-05-06 10:49 37.06646 122.37169 27430 ft 415 kts 290°
2026-05-06 10:49 37.08000 122.33965 27439 ft 419 kts 298°
2026-05-06 10:49 37.09780 122.31047 27439 ft 422 kts 307°
2026-05-06 10:50 37.11930 122.28548 27437 ft 427 kts 315°
2026-05-06 10:50 37.14286 122.26287 27434 ft 425 kts 315°
2026-05-06 10:50 37.16429 122.23742 27434 ft 418 kts 306°
2026-05-06 10:50 37.18190 122.20824 27434 ft 413 kts 298°
2026-05-06 10:51 37.19541 122.17643 27435 ft 409 kts 291°
2026-05-06 10:51 37.20531 122.14275 27437 ft 408 kts 287°
2026-05-06 10:51 37.21436 122.10884 27434 ft 408 kts 286°
2026-05-06 10:51 37.22330 122.07481 27434 ft 408 kts 286°
2026-05-06 10:52 37.23217 122.04078 27433 ft 408 kts 286°
2026-05-06 10:52 37.24104 122.00663 27434 ft 408 kts 286°
2026-05-06 10:52 37.24995 121.97224 27433 ft 408 kts 286°
2026-05-06 10:52 37.25878 121.93805 27433 ft 408 kts 286°
2026-05-06 10:53 37.26762 121.90380 27433 ft 408 kts 286°
2026-05-06 10:53 37.27643 121.86958 27433 ft 408 kts 286°
2026-05-06 10:53 37.28512 121.83578 27433 ft 408 kts 286°
2026-05-06 10:53 37.29383 121.80186 27433 ft 408 kts 286°
2026-05-06 10:54 37.30252 121.76792 27434 ft 408 kts 286°
2026-05-06 10:54 37.31128 121.73369 27433 ft 408 kts 286°
2026-05-06 10:54 37.31997 121.69971 27433 ft 408 kts 286°
2026-05-06 10:54 37.32864 121.66575 27433 ft 408 kts 286°
2026-05-06 10:55 37.33729 121.63181 27433 ft 408 kts 286°
2026-05-06 10:55 37.34597 121.59770 27432 ft 408 kts 286°
2026-05-06 10:55 37.35465 121.56355 27431 ft 408 kts 286°
2026-05-06 10:55 37.36330 121.52946 27429 ft 408 kts 286°
2026-05-06 10:56 37.37203 121.49502 27428 ft 408 kts 286°
2026-05-06 10:56 37.38066 121.46094 27426 ft 408 kts 286°
2026-05-06 10:56 37.38927 121.42684 27425 ft 408 kts 286°
2026-05-06 10:56 37.39789 121.39267 27425 ft 408 kts 286°
2026-05-06 10:57 37.40650 121.35851 27424 ft 408 kts 286°
2026-05-06 10:57 37.41507 121.32440 27424 ft 408 kts 285°
2026-05-06 10:57 37.42364 121.29017 27422 ft 408 kts 285°
2026-05-06 10:57 37.43225 121.25573 27419 ft 408 kts 285°
2026-05-06 10:58 37.44084 121.22145 27417 ft 408 kts 285°
2026-05-06 10:58 37.44964 121.18739 27414 ft 409 kts 287°
2026-05-06 10:58 37.45964 121.15361 27411 ft 409 kts 289°
2026-05-06 10:58 37.47021 121.12016 27411 ft 409 kts 290°
2026-05-06 10:59 37.48082 121.08677 27411 ft 409 kts 290°
2026-05-06 10:59 37.49147 121.05327 27411 ft 409 kts 290°
2026-05-06 10:59 37.50222 121.01943 27412 ft 408 kts 290°
2026-05-06 10:59 37.51292 120.98578 27413 ft 408 kts 290°
2026-05-06 11:00 37.52354 120.95233 27415 ft 408 kts 290°
2026-05-06 11:00 37.53415 120.91890 27416 ft 408 kts 290°
2026-05-06 11:00 37.54475 120.88545 27417 ft 408 kts 290°
2026-05-06 11:00 37.55538 120.85188 27418 ft 408 kts 290°
2026-05-06 11:01 37.56592 120.81849 27418 ft 408 kts 290°
2026-05-06 11:01 37.57655 120.78478 27417 ft 408 kts 290°
2026-05-06 11:01 37.58711 120.75129 27415 ft 408 kts 291°
2026-05-06 11:01 37.59796 120.71795 27413 ft 408 kts 291°
2026-05-06 11:02 37.60900 120.68460 27411 ft 409 kts 291°
2026-05-06 11:02 37.62002 120.65123 27410 ft 409 kts 291°
2026-05-06 11:02 37.63098 120.61793 27409 ft 409 kts 291°
2026-05-06 11:02 37.64068 120.58391 27408 ft 408 kts 286°
2026-05-06 11:03 37.64702 120.54856 27408 ft 408 kts 280°
2026-05-06 11:03 37.65000 120.51274 27409 ft 409 kts 274°
2026-05-06 11:03 37.64967 120.47655 27408 ft 410 kts 269°
2026-05-06 11:03 37.64752 120.44032 27408 ft 410 kts 268°
2026-05-06 11:04 37.64514 120.40416 27407 ft 411 kts 268°
2026-05-06 11:04 37.64266 120.36792 27407 ft 411 kts 268°
2026-05-06 11:04 37.64014 120.33170 27409 ft 411 kts 267°
2026-05-06 11:04 37.63759 120.29540 27407 ft 411 kts 267°
2026-05-06 11:05 37.63506 120.25939 27407 ft 411 kts 267°
2026-05-06 11:05 37.63250 120.22334 27406 ft 411 kts 267°
2026-05-06 11:05 37.62993 120.18733 27407 ft 411 kts 267°
2026-05-06 11:05 37.62734 120.15117 27407 ft 410 kts 267°
2026-05-06 11:06 37.62474 120.11514 27407 ft 411 kts 267°
2026-05-06 11:06 37.62213 120.07917 27407 ft 411 kts 267°
2026-05-06 11:06 37.61950 120.04289 27407 ft 411 kts 267°
2026-05-06 11:06 37.61687 120.00678 27407 ft 411 kts 267°
2026-05-06 11:07 37.61422 119.97071 27406 ft 411 kts 267°
2026-05-06 11:07 37.61156 119.93463 27406 ft 411 kts 267°
2026-05-06 11:07 37.60890 119.89866 27407 ft 411 kts 267°
2026-05-06 11:07 37.60622 119.86269 27407 ft 411 kts 267°
2026-05-06 11:08 37.60355 119.82671 27407 ft 411 kts 267°
2026-05-06 11:08 37.60083 119.79038 27407 ft 411 kts 267°
2026-05-06 11:08 37.59812 119.75440 27407 ft 411 kts 267°
2026-05-06 11:08 37.59539 119.71844 27407 ft 411 kts 267°
2026-05-06 11:09 37.59266 119.68241 27407 ft 411 kts 267°
2026-05-06 11:09 37.59005 119.64636 27407 ft 411 kts 268°
2026-05-06 11:09 37.58760 119.61021 27406 ft 410 kts 268°
2026-05-06 11:09 37.58526 119.57442 27407 ft 411 kts 268°
2026-05-06 11:10 37.58293 119.53842 27406 ft 410 kts 268°
2026-05-06 11:10 37.58051 119.50265 27407 ft 411 kts 268°
2026-05-06 11:10 37.57803 119.46688 27407 ft 411 kts 268°
2026-05-06 11:10 37.57552 119.43111 27407 ft 411 kts 268°
2026-05-06 11:11 37.57299 119.39538 27407 ft 411 kts 268°
2026-05-06 11:11 37.57047 119.35961 27407 ft 411 kts 268°
2026-05-06 11:11 37.56793 119.32387 27408 ft 411 kts 267°
2026-05-06 11:11 37.56535 119.28784 27407 ft 411 kts 267°
2026-05-06 11:12 37.56280 119.25207 27407 ft 411 kts 267°
2026-05-06 11:12 37.56023 119.21621 27407 ft 411 kts 267°
2026-05-06 11:12 37.55764 119.18033 27407 ft 411 kts 267°
2026-05-06 11:12 37.55504 119.14449 27406 ft 411 kts 267°
2026-05-06 11:13 37.55243 119.10866 27407 ft 411 kts 267°
2026-05-06 11:13 37.54982 119.07287 27407 ft 411 kts 267°
2026-05-06 11:13 37.54716 119.03679 27407 ft 411 kts 267°
2026-05-06 11:13 37.54450 119.00090 27407 ft 412 kts 267°
2026-05-06 11:14 37.54184 118.96504 27407 ft 412 kts 267°
2026-05-06 11:14 37.53919 118.92902 27407 ft 412 kts 268°
2026-05-06 11:14 37.53665 118.89519 27406 ft 412 kts 268°
2026-05-06 11:14 37.53450 118.86659 27405 ft 413 kts 268°
2026-05-06 11:15 37.53174 118.82982 27406 ft 413 kts 267°
2026-05-06 11:15 37.52884 118.79359 27406 ft 414 kts 266°
2026-05-06 11:15 37.52480 118.75757 27406 ft 414 kts 264°
2026-05-06 11:15 37.52038 118.72158 27406 ft 415 kts 265°
2026-05-06 11:16 37.51614 118.68714 27410 ft 415 kts 264°
2026-05-06 11:16 37.51163 118.65065 27275 ft 416 kts 264°
2026-05-06 11:16 37.50716 118.61472 27100 ft 416 kts 265°
2026-05-06 11:16 37.50268 118.57875 26925 ft 417 kts 265°
2026-05-06 11:17 37.49815 118.54245 26748 ft 418 kts 265°
2026-05-06 11:17 37.49362 118.50630 26574 ft 420 kts 265°
2026-05-06 11:17 37.48907 118.47008 26396 ft 421 kts 265°
2026-05-06 11:17 37.48446 118.43364 26220 ft 423 kts 265°
2026-05-06 11:18 37.47985 118.39713 26045 ft 424 kts 265°
2026-05-06 11:18 37.47521 118.36052 25868 ft 425 kts 265°
2026-05-06 11:18 37.47053 118.32373 25695 ft 427 kts 264°
2026-05-06 11:18 37.46579 118.28655 25517 ft 428 kts 264°
2026-05-06 11:19 37.46109 118.24967 25468 ft 428 kts 264°
2026-05-06 11:19 37.45636 118.21273 25462 ft 429 kts 264°
2026-05-06 11:19 37.45171 118.17568 25460 ft 429 kts 265°
2026-05-06 11:19 37.44712 118.13867 25462 ft 429 kts 264°
2026-05-06 11:20 37.44253 118.10178 25462 ft 428 kts 264°
2026-05-06 11:20 37.43791 118.06487 25460 ft 429 kts 265°
2026-05-06 11:20 37.43324 118.02762 25461 ft 429 kts 265°
2026-05-06 11:20 37.42858 117.99063 25460 ft 429 kts 265°
2026-05-06 11:21 37.42391 117.95370 25462 ft 429 kts 265°
2026-05-06 11:21 37.41924 117.91677 25461 ft 429 kts 264°
2026-05-06 11:21 37.41455 117.87981 25462 ft 429 kts 265°
2026-05-06 11:21 37.40985 117.84284 25461 ft 429 kts 264°
2026-05-06 11:22 37.40513 117.80589 25460 ft 429 kts 265°
2026-05-06 11:22 37.40037 117.76872 25461 ft 428 kts 265°
2026-05-06 11:22 37.39563 117.73186 25462 ft 428 kts 264°
2026-05-06 11:22 37.39088 117.69495 25461 ft 429 kts 265°
2026-05-06 11:23 37.38610 117.65797 25463 ft 429 kts 265°
2026-05-06 11:23 37.38134 117.62104 25461 ft 429 kts 264°
2026-05-06 11:23 37.37654 117.58410 25461 ft 429 kts 264°
2026-05-06 11:23 37.37173 117.54714 25461 ft 429 kts 264°
2026-05-06 11:24 37.36687 117.50993 25461 ft 429 kts 264°
2026-05-06 11:24 37.36191 117.47303 25460 ft 429 kts 263°
2026-05-06 11:24 37.35512 117.43650 25462 ft 432 kts 259°
2026-05-06 11:24 37.34590 117.40055 25461 ft 435 kts 255°
2026-05-06 11:25 37.33433 117.36549 25461 ft 439 kts 251°
2026-05-06 11:25 37.32111 117.33088 25464 ft 439 kts 249°
2026-05-06 11:25 37.30768 117.29642 25463 ft 440 kts 249°
2026-05-06 11:25 37.29408 117.26175 25463 ft 440 kts 249°
2026-05-06 11:26 37.28061 117.22753 25461 ft 439 kts 249°
2026-05-06 11:26 37.26709 117.19324 25461 ft 440 kts 249°
2026-05-06 11:26 37.25356 117.15894 25461 ft 440 kts 249°
2026-05-06 11:26 37.23999 117.12463 25462 ft 440 kts 249°
2026-05-06 11:27 37.22643 117.09037 25461 ft 440 kts 249°
2026-05-06 11:27 37.21289 117.05615 25462 ft 439 kts 249°
2026-05-06 11:27 37.19941 117.02213 25462 ft 438 kts 249°
2026-05-06 11:27 37.18592 116.98820 25460 ft 437 kts 248°
2026-05-06 11:28 37.17239 116.95422 25493 ft 439 kts 248°
2026-05-06 11:28 37.15868 116.91981 25865 ft 440 kts 248°
2026-05-06 11:28 37.14526 116.88614 26503 ft 433 kts 248°
2026-05-06 11:28 37.13186 116.85259 27162 ft 427 kts 248°
2026-05-06 11:29 37.11871 116.81965 27731 ft 422 kts 248°
2026-05-06 11:29 37.10575 116.78679 28261 ft 418 kts 249°
2026-05-06 11:29 37.09306 116.75434 28712 ft 416 kts 249°
2026-05-06 11:29 37.08044 116.72203 29121 ft 414 kts 248°
2026-05-06 11:30 37.06782 116.68980 29525 ft 413 kts 248°
2026-05-06 11:30 37.05523 116.65776 29918 ft 411 kts 248°
2026-05-06 11:30 37.04267 116.62582 30274 ft 410 kts 248°
2026-05-06 11:30 37.03009 116.59385 30622 ft 410 kts 248°
2026-05-06 11:31 37.01746 116.56184 30950 ft 409 kts 248°
2026-05-06 11:31 37.00491 116.53005 31239 ft 409 kts 248°
2026-05-06 11:31 36.99238 116.49832 31547 ft 408 kts 248°
2026-05-06 11:31 36.97981 116.46659 31854 ft 408 kts 247°
2026-05-06 11:32 36.96730 116.43499 32134 ft 408 kts 247°
2026-05-06 11:32 36.95476 116.40340 32419 ft 407 kts 247°
2026-05-06 11:32 36.94223 116.37187 32697 ft 407 kts 247°
2026-05-06 11:32 36.92963 116.34017 33028 ft 405 kts 246°
2026-05-06 11:33 36.91721 116.30888 33410 ft 402 kts 246°
2026-05-06 11:33 36.90489 116.27783 33761 ft 399 kts 246°
2026-05-06 11:33 36.89255 116.24684 33908 ft 398 kts 246°
2026-05-06 11:34 36.86750 116.18481 33893 ft 397 kts 246°
2026-05-06 11:34 36.84254 116.12264 33880 ft 397 kts 246°
2026-05-06 11:35 36.81772 116.06076 33875 ft 397 kts 246°
2026-05-06 11:35 36.79287 115.99890 33871 ft 397 kts 246°
2026-05-06 11:36 36.76835 115.93686 33872 ft 397 kts 246°
2026-05-06 11:36 36.74391 115.87480 33871 ft 397 kts 246°
2026-05-06 11:37 36.71951 115.81311 33872 ft 397 kts 246°
2026-05-06 11:37 36.69506 115.75137 33871 ft 397 kts 246°
2026-05-06 11:38 36.67080 115.69026 33870 ft 397 kts 246°
2026-05-06 11:38 36.64627 115.62856 33871 ft 397 kts 246°
2026-05-06 11:39 36.62821 115.56551 33872 ft 395 kts 263°
2026-05-06 11:39 36.62809 115.53116 33872 ft 397 kts 275°
2026-05-06 11:39 36.63466 115.49760 33874 ft 402 kts 287°
2026-05-06 11:39 36.64747 115.46676 33872 ft 412 kts 299°
2026-05-06 11:40 36.66318 115.43924 33873 ft 410 kts 298°
2026-05-06 11:40 36.69207 115.37843 33885 ft 408 kts 294°
2026-05-06 11:41 36.71373 115.31589 33899 ft 398 kts 278°
2026-05-06 11:41 36.72083 115.24785 33908 ft 395 kts 269°
2026-05-06 11:41 36.71780 115.21428 33922 ft 395 kts 256°
2026-05-06 11:42 36.70834 115.18212 33940 ft 397 kts 247°
2026-05-06 11:42 36.68273 115.12121 33944 ft 397 kts 244°
2026-05-06 11:43 36.65611 115.06118 33951 ft 398 kts 244°
2026-05-06 11:43 36.62932 115.00089 33953 ft 398 kts 244°
2026-05-06 11:44 36.58934 114.91074 33953 ft 398 kts 244°
2026-05-06 11:44 36.56266 114.85066 33954 ft 398 kts 244°
2026-05-06 11:45 36.53595 114.79024 33954 ft 399 kts 244°
2026-05-06 11:45 36.50939 114.73038 33954 ft 398 kts 244°
2026-05-06 11:46 36.48347 114.67177 33954 ft 398 kts 244°
2026-05-06 11:46 36.47192 114.63904 33948 ft 395 kts 255°
2026-05-06 11:46 36.46648 114.60516 33957 ft 395 kts 262°
2026-05-06 11:47 36.46063 114.53737 33952 ft 395 kts 264°
2026-05-06 11:47 36.45562 114.46968 33948 ft 395 kts 264°
2026-05-06 11:48 36.45097 114.40691 33944 ft 395 kts 264°
2026-05-06 11:48 36.44573 114.33617 33944 ft 395 kts 264°
2026-05-06 11:49 36.44008 114.27054 33930 ft 395 kts 258°
2026-05-06 11:49 36.41850 114.20622 33938 ft 399 kts 245°
2026-05-06 11:50 36.39226 114.14560 33933 ft 399 kts 244°
2026-05-06 11:50 36.36588 114.08535 33929 ft 399 kts 244°
2026-05-06 11:51 36.33953 114.02507 33919 ft 399 kts 244°
2026-05-06 11:51 36.31335 113.96480 33900 ft 399 kts 244°
2026-05-06 11:52 36.28738 113.90519 33883 ft 399 kts 244°
2026-05-06 11:52 36.25532 113.84865 33878 ft 405 kts 234°
2026-05-06 11:53 36.21870 113.79598 33874 ft 405 kts 234°
2026-05-06 11:53 36.18190 113.74326 33873 ft 405 kts 234°
2026-05-06 11:54 36.14525 113.69072 33872 ft 405 kts 234°
2026-05-06 11:54 36.10855 113.63820 33872 ft 406 kts 234°
2026-05-06 11:55 36.07185 113.58570 33872 ft 405 kts 234°
2026-05-06 11:55 36.03502 113.53311 33873 ft 405 kts 234°
2026-05-06 11:56 35.99832 113.48075 33872 ft 404 kts 234°
2026-05-06 11:56 35.96154 113.42838 33872 ft 405 kts 234°
2026-05-06 11:57 35.92465 113.37592 33871 ft 404 kts 234°
2026-05-06 11:57 35.88768 113.32344 33873 ft 406 kts 233°
2026-05-06 11:58 35.85068 113.27117 33872 ft 405 kts 233°
2026-05-06 11:58 35.81379 113.21909 33872 ft 405 kts 233°
2026-05-06 11:59 35.77676 113.16680 33871 ft 405 kts 233°
2026-05-06 11:59 35.73982 113.11469 33873 ft 406 kts 233°
2026-05-06 12:00 35.70291 113.06272 33872 ft 406 kts 233°
2026-05-06 12:00 35.66583 113.01057 33872 ft 405 kts 233°
2026-05-06 12:01 35.62885 112.95863 33872 ft 405 kts 233°
2026-05-06 12:01 35.59191 112.90682 33872 ft 405 kts 233°
2026-05-06 12:02 35.55497 112.85512 33872 ft 404 kts 233°
2026-05-06 12:02 35.51788 112.80327 33872 ft 404 kts 233°
2026-05-06 12:03 35.48093 112.75168 33872 ft 404 kts 233°
2026-05-06 12:03 35.44399 112.70020 33872 ft 404 kts 233°
2026-05-06 12:04 35.40689 112.64857 33872 ft 404 kts 233°
2026-05-06 12:04 35.36987 112.59713 33872 ft 404 kts 233°
2026-05-06 12:05 35.33287 112.54578 33873 ft 404 kts 233°
2026-05-06 12:05 35.29582 112.49445 33872 ft 404 kts 233°
2026-05-06 12:06 35.25864 112.44301 33872 ft 404 kts 233°
2026-05-06 12:06 35.22157 112.39182 33872 ft 404 kts 233°
2026-05-06 12:07 35.18443 112.34059 33875 ft 404 kts 233°
2026-05-06 12:07 35.14723 112.28914 33873 ft 404 kts 233°
2026-05-06 12:08 35.11009 112.23792 34021 ft 403 kts 233°
2026-05-06 12:08 35.09157 112.21246 34122 ft 402 kts 233°
2026-05-06 12:08 35.07310 112.18711 34193 ft 401 kts 233°
2026-05-06 12:09 35.03614 112.13646 34267 ft 401 kts 233°
2026-05-06 12:09 34.99902 112.08564 34294 ft 402 kts 232°
2026-05-06 12:10 34.96185 112.03487 34303 ft 404 kts 232°
2026-05-06 12:10 34.92446 111.98388 34306 ft 406 kts 231°
2026-05-06 12:11 34.88769 111.93162 34307 ft 407 kts 234°
2026-05-06 12:11 34.85477 111.87595 34308 ft 406 kts 239°
2026-05-06 12:12 34.82529 111.81768 34308 ft 406 kts 240°
2026-05-06 12:12 34.79602 111.75927 34308 ft 406 kts 240°
2026-05-06 12:13 34.76663 111.70051 34307 ft 407 kts 240°
2026-05-06 12:13 34.73707 111.64144 34308 ft 406 kts 240°
2026-05-06 12:14 34.70761 111.58259 34305 ft 406 kts 240°
2026-05-06 12:14 34.67800 111.52357 34308 ft 406 kts 240°
2026-05-06 12:15 34.64843 111.46469 34308 ft 406 kts 240°
2026-05-06 12:15 34.61883 111.40588 34307 ft 406 kts 241°
2026-05-06 12:16 34.58916 111.34700 34308 ft 406 kts 240°
2026-05-06 12:16 34.55967 111.28835 34308 ft 406 kts 240°
2026-05-06 12:17 34.53032 111.23015 34307 ft 406 kts 240°
2026-05-06 12:17 34.50089 111.17202 34307 ft 406 kts 240°
2026-05-06 12:18 34.47128 111.11367 34308 ft 407 kts 240°
2026-05-06 12:18 34.44178 111.05569 34308 ft 405 kts 240°
2026-05-06 12:19 34.41249 110.99765 34308 ft 404 kts 241°
2026-05-06 12:19 34.38426 110.94102 34307 ft 403 kts 242°
2026-05-06 12:20 34.35499 110.88243 34308 ft 402 kts 242°
2026-05-06 12:20 34.32617 110.82487 34308 ft 401 kts 242°
2026-05-06 12:21 34.29733 110.76743 34307 ft 401 kts 242°
2026-05-06 12:21 34.26835 110.70978 34308 ft 402 kts 242°
2026-05-06 12:22 34.23941 110.65233 34308 ft 402 kts 242°
2026-05-06 12:22 34.21049 110.59504 34308 ft 401 kts 242°
2026-05-06 12:23 34.18149 110.53770 34308 ft 401 kts 242°
2026-05-06 12:23 34.15240 110.48028 34308 ft 401 kts 242°
2026-05-06 12:24 34.12349 110.42298 34308 ft 402 kts 242°
2026-05-06 12:24 34.09471 110.36552 34308 ft 401 kts 242°
2026-05-06 12:25 34.06581 110.30785 34309 ft 402 kts 242°
2026-05-06 12:25 34.03701 110.25045 34308 ft 401 kts 242°
2026-05-06 12:26 34.00812 110.19312 34308 ft 401 kts 241°
2026-05-06 12:26 33.97915 110.13582 34268 ft 401 kts 242°
2026-05-06 12:27 33.95008 110.07846 34185 ft 402 kts 241°
2026-05-06 12:27 33.92105 110.02126 34144 ft 402 kts 241°
2026-05-06 12:28 33.89228 109.96369 34129 ft 402 kts 243°
2026-05-06 12:28 33.86713 109.90376 34123 ft 400 kts 248°
2026-05-06 12:29 33.84601 109.84218 34121 ft 400 kts 250°
2026-05-06 12:29 33.82521 109.78044 34120 ft 400 kts 250°
2026-05-06 12:30 33.80450 109.71872 34120 ft 399 kts 250°
2026-05-06 12:30 33.78374 109.65686 34120 ft 400 kts 250°
2026-05-06 12:31 33.76299 109.59515 34120 ft 400 kts 250°
2026-05-06 12:31 33.74220 109.53345 34120 ft 400 kts 250°
2026-05-06 12:32 33.72129 109.47157 34120 ft 400 kts 250°
2026-05-06 12:32 33.70043 109.40998 34120 ft 400 kts 250°
2026-05-06 12:33 33.67957 109.34846 34120 ft 400 kts 249°
2026-05-06 12:33 33.65867 109.28674 34120 ft 400 kts 249°
2026-05-06 12:34 33.63768 109.22488 34119 ft 400 kts 249°
2026-05-06 12:34 33.61674 109.16338 34120 ft 399 kts 249°